Lake Martin Weather Center

Moon Phase Calendar



Lake Martin Water Level
Online Cameras

 


      

Current Conditions in Dadeville
1/28/2023 8:57:05 PM

49°F
Feels Like 49
Clear
Humidity
46%
Pressure
30.3"
Wind
0
Dew Point
30°F
UV Index
0/10 (Low)
Visibility
6 mi

Hourly Forecast

Date & Time Sat, Jan 28
8:00 PM
Sat, Jan 28
9:00 PM
Sat, Jan 28
10:00 PM
Sat, Jan 28
11:00 PM
Sun, Jan 29
12:00 AM
Sun, Jan 29
1:00 AM
Sun, Jan 29
2:00 AM
Sun, Jan 29
3:00 AM
Sun, Jan 29
4:00 AM
Sun, Jan 29
5:00 AM
Sun, Jan 29
6:00 AM
Sun, Jan 29
7:00 AM
Sun, Jan 29
8:00 AM
Sun, Jan 29
9:00 AM
Sun, Jan 29
10:00 AM
Sun, Jan 29
11:00 AM
Sun, Jan 29
12:00 PM
Sun, Jan 29
1:00 PM
Sun, Jan 29
2:00 PM
Sun, Jan 29
3:00 PM
Sun, Jan 29
4:00 PM
Sun, Jan 29
5:00 PM
Sun, Jan 29
6:00 PM
Sun, Jan 29
7:00 PM
Sun, Jan 29
8:00 PM
Sun, Jan 29
9:00 PM
Sun, Jan 29
10:00 PM
Sun, Jan 29
11:00 PM
Mon, Jan 30
12:00 AM
Mon, Jan 30
1:00 AM
Mon, Jan 30
2:00 AM
Mon, Jan 30
3:00 AM
Mon, Jan 30
4:00 AM
Mon, Jan 30
5:00 AM
Mon, Jan 30
6:00 AM
Mon, Jan 30
7:00 AM
Mon, Jan 30
8:00 AM
Mon, Jan 30
9:00 AM
Mon, Jan 30
10:00 AM
Mon, Jan 30
11:00 AM
Mon, Jan 30
12:00 PM
Mon, Jan 30
1:00 PM
Mon, Jan 30
2:00 PM
Mon, Jan 30
3:00 PM
Mon, Jan 30
4:00 PM
Mon, Jan 30
5:00 PM
Mon, Jan 30
6:00 PM
Mon, Jan 30
7:00 PM
Condition
Clouds

Clear

Clouds

Clouds

Clouds

Clouds

Clouds

Clouds

Clouds

Clouds

Clouds

Clouds

Clouds

Clouds

Clouds

Clouds

Clouds

Clouds

Clouds

Clouds

Rain

Rain

Rain

Rain

Rain

Rain

Rain

Rain

Rain

Rain

Rain

Rain

Clouds

Clouds

Clouds

Clouds

Clouds

Clouds

Clouds

Rain

Clouds

Clouds

Clouds

Clouds

Clouds

Clouds

Clouds

Clouds
Temperature 48°F49°F48°F47°F46°F44°F42°F42°F43°F42°F42°F42°F46°F51°F55°F60°F63°F64°F64°F61°F59°F57°F56°F57°F56°F55°F55°F54°F54°F54°F54°F54°F54°F54°F54°F55°F56°F57°F59°F60°F61°F62°F62°F62°F61°F59°F57°F57°F
Feels Like 46°F46°F46°F45°F43°F41°F39°F38°F39°F39°F39°F40°F44°F49°F54°F59°F62°F64°F64°F61°F59°F57°F56°F57°F56°F55°F55°F54°F54°F54°F53°F54°F54°F53°F54°F54°F55°F57°F59°F60°F61°F62°F62°F62°F61°F59°F57°F57°F
Cloudiness 19%0%19%39%59%80%100%81%85%88%90%100%98%94%95%82%83%100%100%100%100%100%100%100%100%100%100%100%100%100%100%100%100%99%100%100%100%100%100%100%100%100%100%100%100%100%100%100%
Visibility 6 mi6 mi6 mi6 mi6 mi6 mi6 mi6 mi6 mi6 mi6 mi6 mi6 mi6 mi6 mi6 mi6 mi6 mi6 mi6 mi6 mi6 mi5 mi6 mi2 mi3 mi1 mi1 mi6 mi6 mi6 mi6 mi6 mi6 mi6 mi6 mi6 mi6 mi6 mi6 mi6 mi6 mi6 mi6 mi6 mi6 mi6 mi6 mi
Precipitation 0%0%0%0%0%0%0%0%0%0%0%0%0%0%0%0%0%0%2%5%44%91%100%100%100%100%100%100%100%100%100%100%79%76%76%19%18%14%10%22%19%10%5%0%0%0%0%0%
Humidity 51%46%51%56%61%67%72%74%71%73%74%73%71%66%66%65%67%69%72%82%88%95%98%99%98%98%99%99%99%99%99%98%98%99%99%98%98%96%94%93%91%89%88%89%92%96%97%97%
Dew Point 31°F30°F31°F32°F33°F34°F34°F34°F34°F34°F33°F34°F37°F40°F44°F48°F51°F54°F55°F55°F55°F55°F56°F56°F55°F54°F54°F54°F53°F53°F53°F53°F53°F53°F53°F54°F55°F55°F57°F57°F58°F58°F58°F58°F58°F58°F56°F56°F
Pressure 30.3"30.3"30.3"30.3"30.3"30.3"30.27"30.27"30.27"30.27"30.27"30.27"30.27"30.27"30.3"30.24"30.21"30.15"30.15"30.12"30.12"30.12"30.15"30.12"30.15"30.12"30.12"30.15"30.15"30.15"30.12"30.09"30.09"30.12"30.12"30.15"30.15"30.18"30.18"30.18"30.15"30.12"30.12"30.12"30.12"30.15"30.15"30.15"
Wind Speed 6 mph6.9 mph5 mph5.3 mph4.8 mph5.6 mph5.4 mph5.6 mph5.5 mph4.8 mph4 mph4.4 mph4.7 mph5 mph5.1 mph6.1 mph5.4 mph5.6 mph5 mph0.9 mph1.8 mph4.9 mph5.8 mph6.8 mph9.1 mph7.5 mph7.4 mph3.5 mph4.2 mph5.6 mph8.1 mph7.6 mph4.8 mph2.3 mph2.4 mph2.7 mph1.3 mph1.4 mph2.1 mph2.1 mph1.5 mph2.6 mph3 mph3.4 mph2.8 mph3.2 mph2.8 mph3.2 mph
Wind
Direction
129°
SE
135°
SE
143°
SE
143°
SE
135°
SE
134°
SE
135°
SE
136°
SE
141°
SE
143°
SE
140°
SE
150°
SSE
142°
SE
157°
SSE
166°
SSE
163°
SSE
178°
S
193°
SSW
208°
SSW
51°
NE
65°
ENE
47°
NE
92°
E
70°
ENE
121°
ESE
78°
ENE
85°
E
29°
NNE
42°
NE
42°
NE
100°
E
119°
ESE
136°
SE
94°
E
92°
E
116°
ESE
308°
NW
360°
N
340°
NNW
336°
NNW
308°
NW
313°
NW
324°
NW
339°
NNW
354°
N
335°
NNW
326°
NW
347°
NNW

Daily Forecast

Date High Low Precip. Humidity
Today
Jan 28

Clouds
57 °F
36 °F
0%
46%
Sunday
Jan 29

Rain
64 °F
42 °F
100%
65%
Monday
Jan 30

Rain
62 °F
54 °F
100%
93%
Tuesday
Jan 31

Rain
56 °F
46 °F
82%
90%
Wednesday
Feb 1

Rain
53 °F
44 °F
72%
92%
Thursday
Feb 2

Rain
64 °F
54 °F
100%
99%
Friday
Feb 3

Rain
58 °F
41 °F
100%
80%
Saturday
Feb 4

Clouds
52 °F
37 °F
0%
51%
Sunday
Feb 5

Rain
42 °F
38 °F
79%
94%
Monday
Feb 6

Clear
60 °F
36 °F
0%
47%
Tuesday
Feb 7

Clouds
60 °F
40 °F
0%
48%
Wednesday
Feb 8

Clouds
65 °F
42 °F
0%
42%
Thursday
Feb 9

Clouds
67 °F
47 °F
0%
46%
Friday
Feb 10

Rain
71 °F
52 °F
48%
61%
Saturday
Feb 11

Rain
57 °F
35 °F
100%
75%
Sunday
Feb 12

Clouds
55 °F
30 °F
0%
36%

Temperature 8-14 Day Outlook



Precipitation 8-14 Day Outlook






About Us
Contact Us
Site Map
Search Site
Advertise With Us
   
www.LakeMartin.com
THE LAKE MARTIN WEBSITE

Copyright 2023, Lakes Online
Privacy    |    Legal